Regional Weather Roundup
Issued by NWS Mobile, AL

Home | Current Version | Previous Version | Text Only | Print | Product List | Glossary On
Versions: 1 2 3 4 5 6 7 8 9 10 11 12 13 14 15 16 17 18 19 20 21 22 23 24 25 26 27 28
000
ASUS44 KMOB 231512
RWRMOB
REGIONAL WEATHER ROUNDUP
NATIONAL WEATHER SERVICE MOBILE AL
900 AM CST THU FEB 23 2017

NOTE: "FAIR" INDICATES FEW OR NO CLOUDS BELOW 12,000 FEET WITH NO
      SIGNIFICANT WEATHER AND/OR OBSTRUCTIONS TO VISIBILITY.

  * THESE STATIONS ARE PART OF THE UNIVERSITY OF SOUTH ALABAMA
    MESONET AND ARE NOT UNDER NWS OR FAA QUALITY CONTROL.

ALZ061>064-231600-
COASTAL ALABAMA

CITY           SKY/WX    TMP DP  RH WIND       PRES   REMARKS
MOBILE REG APT MOSUNNY   65  60  84 NE5       29.86R
BROOKLEY FIELD CLOUDY    61  60  97 NE7       29.87R FOG
USA CAMPUS*    NOT AVBL
DOG RIVER*     NOT AVBL


CITY           SKY/WX    TMP DP  RH WIND       PRES   REMARKS
GULF SHORES    CLOUDY    60  60 100 CALM      29.86R FOG

$$

ALZ051>060-231600-
INTERIOR SOUTHWEST AND SOUTH CENTRAL ALABAMA

CITY           SKY/WX    TMP DP  RH WIND       PRES   REMARKS
GREENVILLE     CLOUDY    65  59  81 E8        29.87R
EVERGREEN      CLOUDY    64  59  83 E6        29.87R
ATMORE*        NOT AVBL
ANDALUSIA/OPP  CLOUDY    67  60  78 E10       29.86S
ANDALUSIA*     NOT AVBL
FLORALA APT    CLOUDY    63  59  87 E6        29.88R
FLORALA*       NOT AVBL

$$

FLZ001>006-231600-
WESTERN FLORIDA PANHANDLE

CITY           SKY/WX    TMP DP  RH WIND       PRES   REMARKS
PENSACOLA      CLOUDY    64  60  87 VRB5      29.85R
NAS PENSACOLA  PTSUNNY   65  60  84 NE6       29.85R
MILTON         PTSUNNY   63  59  87 VRB6      29.86R
WHTNG S FIELD  PTSUNNY   65  60  84 E7        29.86R


CITY           SKY/WX    TMP DP  RH WIND       PRES   REMARKS
JAY*           NOT AVBL
DUKE FIELD     PTSUNNY   65  60  82 NE9       29.84R
CRESTVIEW      CLOUDY    66  60  81 NE7       29.86S
VALPARAISO     MOSUNNY   67  61  78 NE10      29.83S
DESTIN         SUNNY     70  67  90 NE8       29.83S

$$

MSZ076-079-231600-
INTERIOR SOUTHEAST MISSISSIPPI

CITY           SKY/WX    TMP DP  RH WIND       PRES   REMARKS
LEAKESVILLE*   NOT AVBL
AGRICOLA*      NOT AVBL

$$

MARINE OBSERVATIONS

STATION/POSITION TIME  TEMP    WIND        PRES    WAVE
                       AIR SEA DIR/SP/G            HT/PER
                 (UTC) (F)     (DEG/KT/KT) (MB)    (FT/S)
PASCAGOULA       1448   66     100/  6/  8 1010.5R
PETIT BOIS ISLND 1448   65      70/  8/ 10 1011.3R
GRAND BAY        1345   60      30/  4     1011.0R
KATRINA CUT      1430           80/ 11     1010.5R
CEDAR POINT      1430   63      80/  7     1010.8R
E DAUPHIN ISLAND 1400   63      80/ 10/ 11 1010.0R
MIDDLE BAY LIGHT 1430   63      60/  7     1010.5R
USCG MOBILE BAY  1448   59 64   60/  5/  7 1011.8R
STATE DOCKS      1448   60 62              1011.1R
MEAHER PARK      1430   59      60/  4     1011.2R
WEEKS BAY        1345   59                   N/A
FORT MORGAN      1448   62     100/ 11/ 13   N/A
12 S ORANGE BCH  1450   63 68   80/ 10/ 12 1010.4R   2/ 3
PENSACOLA BAY    1448   63 65   50/  4/  7 1010.9R
67 S FORT MORGAN 1430   70      50/ 12     1009.8R

$$

SELECTED LOCATIONS ACROSS THE REGION

CITY           SKY/WX    TMP DP  RH WIND       PRES   REMARKS
NEW ORLEANS    MOSUNNY   67  61  81 E5        29.85R
GULFPORT       SUNNY     67  61  81 VRB6      29.84R
PASCAGOULA AP  SUNNY     67  59  75 E6        29.85R
PASCAGOULA*    NOT AVBL
HATTIESBURG    FOG       56  55  97 CALM      29.87R VSB 1/4
LAUREL         CLOUDY    57  54  88 SE3       29.88R VSB 1/4
MERIDIAN       CLOUDY    61  60  97 SE3       29.87R
JACKSON        SUNNY     65  60  84 SE8       29.84R
MONTGOMERY     CLOUDY    68  58  70 E13       29.88R
TROY           CLOUDY    65  61  87 E6        29.89R
ASHFORD*       NOT AVBL
DOTHAN         PTSUNNY   66  63  90 NE8       29.89R
PANAMA CITY    CLOUDY    64  61  90 N9        29.83R

$$





USA.gov is the U.S. government's official web portal to all federal, state and local government web resources and services.